Regional Weather Roundup
Issued by NWS

Home | Current Version | Previous Version | Text Only | Print | Product List | Glossary On
Versions: 1 2 3 4 5 6 7 8 9 10 11 12 13 14 15 16 17 18 19 20 21 22 23 24 25 26 27 28 29 30 31 32 33 34 35 36 37 38 39 40 41 42 43 44 45 46 47 48 49 50
000
ASUS43 KTOP 271808
RWRKS

WEATHER ROUNDUP FOR KANSAS
NATIONAL WEATHER SERVICE GOODLAND KS
100 PM CDT SUN JUL 27 2014

NOTE:  "FAIR" INDICATES FEW OR NO CLOUDS BELOW 12,000 FEET WITH NO
SIGNIFICANT WEATHER AND/OR OBSTRUCTIONS TO VISIBILITY.

KSZ001>006-013>018-027>032-041>047-271900-
NORTHWEST KANSAS

CITY           SKY/WX    TMP DP  RH WIND       PRES   REMARKS
GOODLAND       SUNNY     81  53  37 E8G18     30.32S
6HR MIN TEMP:  59; 6HR MAX TEMP:  82;

HAYS           PTSUNNY   84  57  39 NE13G23   30.20F
HILL CITY      PTSUNNY   89  48  24 NE15      30.22S
6HR MIN TEMP:  68; 6HR MAX TEMP:  89;

RUSSELL        PTSUNNY   86  55  34 NE10G22   30.17F
6HR MIN TEMP:  73; 6HR MAX TEMP:  86;

$$

KSZ061>065-074>080-084>089-271900-
SOUTHWEST KANSAS

CITY           SKY/WX    TMP DP  RH WIND       PRES   REMARKS
DODGE CITY     CLOUDY    76  61  59 NE14      30.22S
6HR MIN TEMP:  71; 6HR MAX TEMP:  76; 6HR PCP:  0.10;

ELKHART          N/A     83  65  54 E15         N/A
GARDEN CITY    PTSUNNY   80  63  55 E18       30.24S
6HR MIN TEMP:  69; 6HR MAX TEMP:  80; 6HR PCP: TRACE;

GREAT BEND     CLOUDY    81  64  57 NE12      30.17R
LIBERAL        PTSUNNY   82  64  54 NE9G16    30.23S
PRATT          CLOUDY    73  70  88 E10       30.19R
$$

KSZ066>073-081>083-090>101-271900-
SOUTHEAST KANSAS

CITY           SKY/WX    TMP DP  RH WIND       PRES   REMARKS
CHANUTE        CLOUDY    85  71  63 N5        30.07S
6HR MIN TEMP:  74; 6HR MAX TEMP:  86;

COFFEYVILLE    CLOUDY    90  62  39 N15       30.04R
6HR MIN TEMP:  74; 6HR MAX TEMP:  91;

HUTCHINSON     LGT RAIN  79  72  79 E7        30.15F
6HR MIN TEMP:  71; 6HR MAX TEMP:  80; 6HR PCP: TRACE;

MEDICINE LODGE   N/A     75  71  87 NE18      30.13F
NEWTON         CLOUDY    81  66  61 N9        30.19R
PARSONS        CLOUDY    87  67  51 NE7       30.07R
6HR MIN TEMP:  73; 6HR MAX TEMP:  89;

WICHITA INTL   LGT RAIN  82  72  71 NW8       30.15R
6HR MIN TEMP:  77; 6HR MAX TEMP:  82; 6HR PCP:  0.03;

WICHITA JABRA  CLOUDY    81  71  71 N8        30.15R
6HR MIN TEMP:  74; 6HR MAX TEMP:  82; 6HR PCP:  0.04;

WICHITA MCCONL CLOUDY    80  76  85 NW6       30.15R
WINFIELD       CLOUDY    82  69  64 N12       30.13R
6HR MIN TEMP:  74; 6HR MAX TEMP:  88;

$$

KSZ007>012-019>026-033>040-048>060-102>105-271900-
NORTHEAST KANSAS

CITY           SKY/WX    TMP DP  RH WIND       PRES   REMARKS
CONCORDIA      PTSUNNY   84  52  33 N14G22    30.16S
6HR MIN TEMP:  71; 6HR MAX TEMP:  86;

EMPORIA        CLOUDY    88  62  41 N13G23    30.10R
6HR MIN TEMP:  76; 6HR MAX TEMP:  89;

LAWRENCE       CLOUDY    89  61  38 NW16      30.06F
6HR MIN TEMP:  76; 6HR MAX TEMP:  89;

MANHATTAN      CLOUDY    90  53  28 N12G20    30.11F
6HR MIN TEMP:  75; 6HR MAX TEMP:  90;

MARYSVILLE     MOSUNNY   86  54  32 NW18G25   30.12S
OLATHE IND     CLOUDY    87  59  38 NW17G24   30.07F
6HR MIN TEMP:  74; 6HR MAX TEMP:  87;

OLATHE EXE     CLOUDY    86  57  37 N13       30.05F
6HR MIN TEMP:  76; 6HR MAX TEMP:  87;

SALINA         CLOUDY    87  55  33 N13       30.15S
6HR MIN TEMP:  76; 6HR MAX TEMP:  87;

TOPEKA BILLARD CLOUDY    90  55  30 NW14G21   30.07F
6HR MIN TEMP:  75; 6HR MAX TEMP:  90;

TOPEKA FORBES  CLOUDY    90  52  27 NW21G28   30.07F
6HR MIN TEMP:  76; 6HR MAX TEMP:  90;

$$



USA.gov is the U.S. government's official web portal to all federal, state and local government web resources and services.